Wind_Speed
14 14 15 15 15 16 16 15 15 16 16 16 16 17 17 18 18 18 18 17 17 16 15 14 13 13 14 14 14 15 15 16 17 17 18 18 18 18 18 18 17 17 17
15 15 15 16 16 16 16 16 16 17 17 17 17 17 17 17 18 18 18 18 18 18 18 17 16 16 16 16 16 16 17 17 18 19 19 19 19 19 19 19 19 18 18
17 16 16 17 17 17 17 17 17 17 17 17 17 17 18 18 18 18 18 18 19 19 19 19 18 18 17 18 18 18 18 19 19 20 20 21 20 20 20 20 20 19 19
18 17 17 17 17 17 16 16 17 17 17 17 17 17 17 18 18 18 18 18 18 19 19 20 20 19 18 18 18 18 19 19 20 21 21 22 21 21 21 20 20 20 20
18 17 17 17 17 16 15 15 16 16 17 17 17 17 17 17 18 18 18 18 18 19 19 19 19 19 19 19 19 19 19 20 20 21 22 22 22 22 21 21 21 21 20
19 18 18 18 18 17 17 16 16 17 18 18 18 18 18 18 18 19 19 19 19 19 19 19 19 19 19 19 19 19 20 20 21 22 22 22 22 22 22 21 21 21 21
20 20 20 20 20 20 19 19 18 19 19 19 20 20 20 20 20 19 19 19 19 20 20 20 20 20 20 20 20 20 20 21 21 22 23 23 23 23 23 22 22 22 22
22 22 22 23 23 22 22 21 21 21 21 21 21 21 21 21 21 20 20 20 20 20 20 20 20 21 21 21 21 21 21 22 22 23 23 24 24 24 24 24 24 24 25
25 25 25 26 25 25 24 24 23 23 22 22 22 22 21 21 21 21 21 21 21 21 21 21 21 21 21 22 22 22 22 22 23 23 24 24 25 25 26 26 26 27 27
28 28 28 28 28 27 26 26 25 24 24 23 23 23 22 22 22 22 22 22 22 22 22 22 22 22 22 22 23 23 23 23 24 24 24 25 26 27 28 28 28 29 29
30 30 30 30 29 29 28 28 27 26 25 25 24 24 23 23 23 23 22 22 22 23 23 23 23 23 23 23 23 24 24 24 25 25 25 25 26 27 28 28 29 29 30
31 31 30 30 30 30 30 29 28 27 27 26 26 25 25 24 24 24 23 23 23 23 24 24 24 24 24 24 24 24 24 25 25 25 25 26 27 27 28 28 29 29 29
30 30 30 30 30 30 30 30 29 29 28 28 27 27 26 26 25 24 24 24 24 24 24 24 24 24 24 24 24 24 24 25 25 25 25 26 27 27 27 27 27 28 28
30 30 30 30 31 31 31 31 30 30 30 30 29 29 28 27 26 26 25 25 25 25 25 25 25 25 25 25 25 25 25 25 25 25 25 26 26 27 27 27 27 27 28
30 31 31 31 32 32 32 32 32 32 32 32 31 31 30 29 28 28 27 27 27 27 27 27 26 26 27 27 26 26 26 26 26 26 26 26 26 26 27 27 27 27 28
31 32 32 32 33 33 33 33 34 34 34 34 34 33 33 32 31 30 30 29 29 29 29 28 28 27 27 27 27 27 26 26 26 26 26 26 26 26 27 27 27 27 28
33 33 34 34 34 34 34 35 35 35 36 36 36 36 35 35 34 33 32 32 31 31 31 30 29 29 28 28 28 28 27 27 27 27 26 27 27 27 27 28 28 28 29
34 34 35 35 35 35 36 37 37 38 38 38 38 38 38 37 37 37 36 35 35 34 33 32 32 31 31 30 30 29 29 28 28 28 28 28 28 29 29 29 30 30 30
35 35 36 37 37 37 38 39 40 40 40 41 41 40 40 41 40 40 40 39 39 38 36 36 35 34 33 33 32 31 31 31 30 29 29 29 30 30 31 31 31 31 31
37 37 37 38 38 39 40 41 41 42 42 43 43 43 44 44 44 44 43 43 42 41 40 39 39 38 37 36 35 34 34 33 33 32 32 31 32 32 33 33 33 32 32
38 38 38 39 40 41 41 42 43 43 44 45 46 47 47 47 47 47 46 45 45 44 44 43 42 41 40 39 38 38 37 36 35 34 34 33 33 34 35 35 35 35 35
39 40 40 41 41 42 42 43 44 45 46 47 48 48 48 49 49 49 49 49 48 48 47 47 46 45 44 43 42 41 40 38 37 37 36 36 36 36 37 38 38 38 38
41 41 42 42 42 43 44 45 46 47 47 48 48 49 49 51 51 52 52 52 52 51 51 50 50 49 48 47 46 44 42 41 40 39 39 39 39 39 39 40 40 41 41
42 42 42 43 43 44 44 45 46 47 48 48 49 50 51 52 53 54 54 55 54 54 53 53 52 52 51 50 49 48 46 45 43 42 42 42 42 42 43 43 44 44 45
42 42 42 42 43 43 44 45 46 46 47 48 50 51 52 53 54 55 56 57 58 57 56 56 55 55 54 53 52 51 50 49 47 47 46 45 46 46 46 47 47 47 48
41 41 41 41 41 42 43 44 46 47 48 50 51 52 54 55 57 58 59 60 60 60 59 59 59 58 57 56 55 54 53 52 51 51 50 49 49 49 49 50 50 50 51
Wind_Direction
255 259 261 262 264 264 264 264 265 267 269 271 273 274 273 273 273 273 272 273 274 275 275 275 277 278 277 276 275 274 276 277 278 279 280 282 283 284 285 286 287 288 289
254 257 261 262 263 264 265 267 268 268 268 269 271 272 273 274 275 275 274 274 274 274 274 275 277 279 280 281 280 280 280 281 282 283 283 284 284 285 286 287 288 289 290
253 257 261 263 264 265 267 269 271 271 270 271 272 273 275 277 279 279 278 277 277 277 277 277 278 280 282 283 284 284 284 285 285 286 286 286 286 286 287 289 290 290 291
256 260 263 266 268 267 268 270 272 274 274 275 275 277 279 281 282 283 283 283 283 282 281 281 281 282 283 284 284 284 284 285 286 287 287 287 287 287 287 288 290 290 291
256 260 265 268 270 270 270 271 274 277 279 280 281 282 283 284 285 286 287 286 287 286 286 284 284 284 284 284 284 285 285 286 287 287 287 287 287 287 286 287 288 289 291
254 259 264 268 271 273 274 275 277 279 281 283 285 286 287 288 288 288 288 288 287 287 287 287 287 286 286 285 284 285 286 286 286 286 285 285 285 284 284 285 286 288 290
253 258 262 266 270 274 276 276 276 278 280 282 284 286 286 287 288 288 288 287 287 287 287 288 288 288 288 287 285 285 284 284 285 284 284 283 282 282 281 282 284 286 289
252 257 261 265 268 272 274 275 275 276 279 281 282 283 284 285 286 287 287 287 287 286 287 288 289 289 289 288 287 286 285 285 285 284 283 282 281 280 279 280 282 285 288
251 255 259 263 266 268 270 272 274 275 277 280 281 281 282 283 284 285 286 286 286 286 286 287 288 289 289 289 288 288 287 286 285 285 284 282 281 280 279 280 282 284 287
252 255 258 261 263 266 268 270 272 274 275 277 279 280 280 281 282 283 284 285 285 286 286 286 286 287 287 287 287 287 287 285 285 285 284 283 282 281 280 281 283 284 286
251 254 257 259 261 264 266 269 271 272 274 275 276 278 279 279 280 281 282 283 283 284 285 285 285 285 285 285 285 285 285 285 284 284 284 284 284 284 284 284 285 286 287
251 253 256 259 260 262 265 267 269 271 272 273 275 276 277 278 279 280 281 281 282 283 283 283 283 283 283 283 283 283 283 284 284 285 285 285 286 287 287 288 288 288 289
251 253 255 257 259 261 263 265 267 269 270 271 272 274 276 278 278 279 280 281 281 281 281 282 282 281 281 281 282 282 283 283 284 284 285 286 288 289 290 290 290 290 290
251 253 255 257 259 260 262 264 265 267 268 269 271 272 274 276 277 278 279 279 280 280 280 280 280 280 280 281 281 282 282 283 284 284 286 287 289 289 290 291 291 291 292
249 252 254 256 259 261 263 264 265 266 267 269 270 271 272 274 275 277 277 278 278 278 278 278 278 278 279 279 280 281 281 282 284 285 286 287 288 289 291 292 292 293 293
249 252 255 258 260 263 265 266 267 268 268 269 270 270 271 272 273 274 275 276 276 276 277 277 277 277 277 277 278 279 280 281 282 284 286 286 287 289 291 292 293 294 294
249 253 256 259 262 264 265 266 267 268 269 270 271 271 272 272 273 273 274 274 274 275 275 275 276 276 276 276 277 278 279 280 281 283 284 284 286 288 290 292 293 295 295
250 253 257 260 263 265 267 267 268 268 269 270 271 272 273 273 273 273 273 273 273 273 274 274 275 275 275 275 276 277 278 279 280 281 282 284 286 287 289 291 292 293 294
251 255 259 262 264 266 267 268 269 270 271 271 272 272 272 272 272 273 273 272 272 272 273 273 273 273 273 274 275 276 277 278 279 280 281 283 285 286 288 289 290 291 291
253 257 260 263 264 266 267 268 269 270 271 272 272 271 271 270 270 271 271 272 272 272 272 272 272 272 272 273 274 275 276 277 278 280 281 282 284 285 286 287 288 289 289
256 259 261 263 265 266 267 267 268 269 270 270 271 271 271 271 271 271 271 270 270 270 270 270 270 271 271 271 272 273 275 276 278 279 280 281 283 284 285 286 286 286 286
260 262 263 265 266 267 267 267 268 268 269 270 271 271 272 272 271 271 270 269 268 268 268 268 269 269 269 271 271 272 273 275 276 277 279 280 282 284 285 285 285 285 285
264 265 267 267 268 268 268 268 268 269 269 270 271 271 270 269 268 268 268 268 267 267 267 267 267 268 268 269 270 271 272 273 274 275 277 279 281 283 284 284 285 284 283
267 268 269 270 270 270 270 270 270 270 270 270 270 269 269 269 269 268 267 267 266 266 266 265 265 266 267 268 269 270 270 271 272 274 276 279 280 281 283 283 283 284 283
268 270 271 271 271 272 272 272 272 272 271 270 270 269 269 268 267 266 266 265 265 264 264 264 263 264 265 266 267 268 269 271 272 273 275 277 279 281 283 283 283 283 283
269 270 271 272 273 273 274 274 274 274 274 273 272 271 269 268 267 266 265 264 263 262 262 261 261 262 262 263 264 266 268 270 272 273 274 276 278 280 282 283 282 284 284
Height
5886 5886 5887 5888 5888 5889 5889 5890 5890 5890 5889 5889 5889 5888 5888 5888 5887 5886 5886 5885 5885 5884 5884 5883 5883 5882 5881 5881 5880 5880 5880 5879 5879 5878 5877 5877 5876 5875 5875 5874 5873 5872 5872
5884 5884 5885 5886 5886 5887 5887 5887 5888 5888 5887 5887 5887 5886 5886 5885 5885 5884 5884 5883 5882 5882 5881 5881 5880 5880 5879 5879 5878 5878 5877 5877 5876 5876 5875 5874 5874 5873 5872 5871 5870 5870 5869
5881 5882 5883 5884 5884 5885 5885 5885 5885 5885 5885 5885 5884 5884 5884 5883 5882 5882 5881 5880 5880 5879 5878 5878 5877 5877 5877 5876 5876 5875 5875 5874 5874 5873 5872 5872 5871 5870 5869 5868 5868 5867 5866
5878 5879 5880 5881 5882 5882 5883 5883 5883 5883 5882 5882 5882 5882 5881 5880 5880 5879 5878 5878 5877 5876 5875 5875 5874 5874 5874 5874 5873 5873 5872 5871 5871 5870 5869 5869 5868 5867 5866 5865 5865 5864 5863
5875 5876 5877 5878 5879 5879 5880 5880 5880 5880 5880 5879 5879 5879 5878 5878 5877 5876 5875 5875 5874 5873 5872 5872 5871 5871 5870 5870 5870 5869 5869 5868 5867 5867 5866 5865 5864 5863 5863 5862 5861 5860 5859
5872 5873 5874 5875 5876 5876 5877 5877 5877 5877 5877 5876 5876 5876 5875 5874 5874 5873 5872 5872 5871 5870 5869 5869 5868 5867 5867 5867 5866 5866 5865 5865 5864 5863 5862 5861 5861 5860 5859 5858 5858 5857 5856
5869 5870 5871 5872 5872 5873 5873 5874 5874 5873 5873 5873 5873 5872 5872 5871 5870 5870 5869 5868 5868 5867 5866 5865 5865 5864 5864 5863 5863 5862 5861 5861 5860 5859 5858 5858 5857 5856 5855 5855 5854 5853 5852
5866 5866 5867 5868 5869 5869 5870 5870 5870 5870 5869 5869 5869 5869 5868 5868 5867 5866 5866 5865 5864 5863 5863 5862 5861 5861 5860 5860 5859 5858 5858 5857 5856 5855 5854 5854 5853 5852 5852 5851 5850 5849 5848
5861 5862 5863 5864 5864 5865 5865 5866 5866 5866 5865 5865 5865 5865 5865 5864 5863 5863 5862 5861 5861 5860 5859 5858 5858 5857 5857 5856 5855 5854 5854 5853 5852 5851 5850 5849 5849 5848 5847 5846 5845 5844 5843
5857 5858 5859 5859 5860 5860 5861 5861 5861 5861 5861 5861 5861 5861 5861 5860 5859 5859 5858 5858 5857 5856 5855 5854 5854 5853 5853 5852 5851 5850 5850 5849 5848 5847 5846 5845 5844 5843 5842 5841 5840 5839 5838
5852 5853 5854 5855 5855 5856 5856 5856 5856 5857 5857 5856 5856 5856 5856 5856 5855 5855 5854 5854 5853 5852 5851 5851 5850 5849 5848 5848 5847 5846 5845 5844 5843 5842 5842 5841 5840 5839 5837 5836 5835 5834 5833
5847 5849 5850 5850 5851 5851 5851 5852 5852 5852 5852 5852 5852 5852 5851 5851 5851 5851 5850 5849 5849 5848 5847 5846 5845 5845 5844 5843 5842 5842 5841 5840 5839 5838 5837 5836 5835 5834 5832 5831 5830 5829 5827
5842 5844 5845 5845 5846 5846 5846 5847 5847 5847 5847 5847 5847 5847 5847 5847 5846 5846 5846 5845 5844 5843 5842 5841 5841 5840 5839 5838 5838 5837 5836 5835 5834 5833 5832 5831 5830 5828 5827 5826 5824 5823 5822
5837 5839 5839 5840 5841 5841 5841 5842 5842 5842 5842 5842 5842 5842 5842 5842 5842 5841 5841 5840 5839 5838 5838 5837 5836 5835 5834 5833 5833 5832 5831 5830 5829 5828 5827 5826 5825 5823 5822 5821 5819 5818 5816
5832 5833 5834 5835 5835 5836 5836 5837 5837 5837 5837 5837 5837 5837 5837 5836 5836 5836 5835 5835 5834 5833 5832 5832 5831 5830 5829 5828 5827 5826 5826 5825 5824 5823 5822 5821 5820 5818 5817 5815 5814 5813 5811
5826 5827 5828 5829 5830 5831 5831 5832 5832 5832 5831 5831 5831 5831 5831 5831 5830 5830 5830 5829 5829 5828 5827 5826 5825 5824 5823 5823 5822 5821 5820 5819 5818 5817 5816 5815 5814 5813 5812 5810 5809 5807 5806
5820 5821 5823 5823 5824 5825 5825 5826 5826 5826 5825 5825 5825 5825 5825 5825 5825 5824 5824 5823 5822 5821 5821 5820 5819 5818 5817 5817 5816 5815 5814 5813 5812 5811 5810 5809 5808 5807 5806 5804 5803 5801 5800
5815 5816 5817 5818 5819 5819 5819 5819 5819 5819 5819 5819 5819 5819 5819 5819 5818 5817 5817 5816 5815 5815 5814 5814 5813 5812 5811 5810 5810 5809 5808 5807 5806 5805 5804 5803 5802 5801 5800 5798 5797 5796 5794
5809 5810 5811 5812 5813 5813 5813 5813 5813 5812 5812 5812 5812 5812 5812 5811 5810 5810 5809 5809 5808 5808 5807 5807 5806 5805 5804 5804 5803 5802 5801 5801 5800 5799 5798 5797 5795 5794 5793 5792 5790 5789 5788
5803 5804 5805 5805 5806 5806 5805 5805 5805 5805 5804 5804 5804 5803 5803 5802 5802 5801 5801 5801 5800 5800 5800 5799 5798 5797 5797 5796 5796 5795 5794 5794 5793 5792 5791 5790 5789 5787 5786 5785 5783 5782 5780
5795 5797 5797 5798 5798 5798 5798 5797 5797 5797 5796 5795 5795 5794 5793 5793 5793 5792 5792 5792 5791 5791 5790 5789 5789 5789 5788 5788 5787 5787 5786 5786 5785 5784 5783 5782 5781 5780 5778 5777 5775 5774 5772
5786 5788 5789 5789 5789 5789 5789 5789 5788 5787 5787 5786 5785 5784 5783 5783 5782 5782 5781 5781 5781 5780 5780 5780 5779 5779 5779 5779 5778 5777 5778 5778 5777 5776 5775 5774 5773 5771 5770 5768 5767 5765 5764
5777 5779 5779 5780 5780 5780 5779 5779 5779 5778 5777 5777 5775 5774 5773 5771 5770 5770 5770 5769 5769 5769 5769 5769 5768 5768 5768 5768 5767 5768 5768 5769 5768 5767 5766 5765 5764 5763 5761 5759 5758 5756 5754
5768 5769 5770 5770 5770 5769 5769 5769 5768 5768 5767 5766 5764 5763 5761 5760 5759 5758 5757 5756 5756 5756 5757 5757 5757 5757 5756 5757 5757 5757 5758 5758 5758 5757 5756 5755 5754 5752 5751 5749 5747 5745 5743
5759 5760 5760 5759 5759 5759 5758 5757 5757 5756 5755 5754 5752 5751 5750 5748 5747 5746 5744 5743 5743 5743 5744 5744 5744 5744 5744 5745 5745 5745 5745 5745 5746 5746 5746 5745 5743 5741 5740 5738 5736 5734 5732
5750 5750 5750 5749 5748 5748 5747 5746 5745 5744 5742 5741 5739 5738 5736 5735 5733 5732 5731 5729 5729 5729 5730 5730 5730 5731 5732 5732 5732 5733 5733 5734 5734 5734 5733 5733 5731 5730 5728 5726 5724 5722 5720